Location: ??
(34.7707°N, 135.6540°E)
Time: 06:43:23
(UTC+00:00)

Cosmos 2218 Rocket - Pass Details

Date: 09 April 2020
Orbit: 957 x 1005 km, 82.9° (Epoch: 24 May)

Event Time Altitude Azimuth Distance (km) Brightness Sun altitude
Rises 12:14:39 0° 348° (NNW) 3,668 7.7 -32.4°
Reaches altitude 10° 12:17:11 10° 345° (NNW) 2,724 6.9 -32.8°
Enters shadow 12:23:03 58° 277° (W) 1,133 4.4 -33.7°
